GFSNGP_prec_precacc_123.txt.gz
Total_Precipitation_Accumulation
0.52 0.16 0.25 0.52 0.63 0.62 0.92 0.66 0.65 0.69 0.54 0.67 0.92 0.46 0.17 0.14 0.09 0.13 0.15 0.18 0.28 0.37 0.45 0.47 0.47 0.44 0.60 0.58 1.12 1.67 1.51 1.30 1.35 1.14 1.02 1.09 1.06 0.82 0.71 0.84 0.88 0.81 0.66 0.77
1.01 0.36 0.47 0.65 0.80 0.52 0.73 0.61 0.56 0.39 0.37 0.43 0.62 0.63 0.38 0.24 0.15 0.20 0.24 0.24 0.25 0.31 0.34 0.41 0.53 0.68 0.67 0.60 0.84 1.09 1.45 1.73 1.28 1.60 1.48 0.98 0.89 0.83 0.80 0.83 0.90 1.02 0.78 0.88
1.09 0.34 0.37 0.71 0.72 0.61 0.50 0.29 0.22 0.29 0.24 0.37 0.64 0.74 0.66 0.47 0.28 0.29 0.27 0.25 0.20 0.26 0.30 0.37 0.40 0.33 0.39 0.49 0.60 0.62 0.99 1.85 1.87 1.91 2.66 1.81 1.04 1.08 0.98 1.19 1.12 1.07 1.19 1.09
0.79 0.47 0.62 0.71 0.37 0.41 0.49 0.36 0.16 0.21 0.27 0.44 0.53 0.44 0.61 0.61 0.61 0.39 0.33 0.30 0.22 0.20 0.26 0.30 0.26 0.22 0.20 0.20 0.29 0.38 0.36 0.76 1.39 1.44 2.05 2.85 2.19 1.84 1.88 1.55 1.44 1.09 1.01 0.90
0.67 0.46 0.50 0.29 0.31 0.38 0.77 0.70 0.36 0.31 0.46 0.44 0.34 0.16 0.49 0.61 0.60 0.85 0.66 0.50 0.54 0.41 0.33 0.33 0.32 0.37 0.31 0.24 0.22 0.23 0.24 0.37 0.55 0.96 1.26 1.65 2.22 2.49 2.39 2.28 1.93 1.69 1.29 1.17
0.46 0.45 0.45 0.22 0.12 0.26 0.51 1.17 0.97 0.73 0.50 0.43 0.34 0.39 0.68 0.69 0.60 0.69 0.99 0.79 0.59 0.55 0.35 0.47 0.54 0.48 0.70 0.49 0.37 0.39 0.40 0.38 0.36 0.51 0.76 1.07 1.33 1.45 1.49 1.45 1.51 1.49 1.48 1.27
0.43 0.46 0.19 0.04 0.06 0.20 1.01 1.17 1.07 1.29 0.85 0.74 0.67 0.69 0.83 0.83 0.69 0.63 0.84 1.20 0.85 0.74 0.60 0.64 0.83 0.62 0.73 1.19 1.06 0.89 0.82 0.77 0.77 0.77 0.76 0.71 0.74 0.71 0.74 0.85 0.84 0.85 0.94 0.89
0.44 0.53 0.27 0.14 0.28 0.67 1.00 1.03 1.04 1.18 1.26 1.42 1.38 1.26 1.08 0.86 0.66 0.54 0.51 0.73 1.15 0.97 0.91 0.80 0.91 1.00 0.85 1.09 1.69 1.57 1.28 1.20 1.12 0.93 0.84 0.82 0.81 0.86 0.78 0.76 0.75 0.72 0.66 0.62
0.41 0.43 0.43 0.23 0.36 0.65 0.71 0.78 0.79 0.84 0.90 1.02 1.03 0.96 0.80 0.53 0.37 0.35 0.43 0.46 0.55 0.92 0.98 0.84 0.74 0.93 1.03 1.15 1.27 1.42 1.47 1.41 1.42 1.32 1.23 1.14 1.06 1.04 0.93 0.84 0.80 0.82 0.79 0.86
0.59 0.76 0.32 0.22 0.27 0.33 0.42 0.59 0.53 0.51 0.49 0.48 0.51 0.56 0.54 0.40 0.28 0.23 0.22 0.24 0.28 0.37 0.62 0.80 0.83 0.66 0.71 0.81 0.88 1.00 1.02 1.08 1.23 1.28 1.28 1.20 1.11 1.12 1.08 1.07 1.11 1.16 1.11 1.13
0.89 1.52 0.76 0.65 0.74 0.68 0.48 0.48 0.40 0.42 0.39 0.35 0.31 0.33 0.33 0.33 0.29 0.27 0.26 0.28 0.30 0.26 0.23 0.29 0.37 0.50 0.57 0.58 0.55 0.54 0.58 0.65 0.66 0.69 0.76 0.79 0.81 0.87 0.81 0.99 0.95 0.91 1.02 1.10
1.04 1.27 1.09 0.94 0.70 0.53 0.38 0.34 0.26 0.19 0.17 0.16 0.16 0.16 0.13 0.11 0.10 0.11 0.19 0.19 0.11 0.09 0.09 0.12 0.13 0.15 0.16 0.20 0.27 0.34 0.40 0.45 0.55 0.58 0.57 0.59 0.64 0.77 0.87 0.88 0.81 0.82 0.87 0.85
0.88 0.90 0.73 0.61 0.44 0.33 0.24 0.24 0.19 0.12 0.09 0.08 0.04 0.01 0.01 0.04 0.13 0.21 0.11 0.04 0.03 0.04 0.05 0.05 0.05 0.07 0.09 0.11 0.15 0.19 0.24 0.27 0.33 0.40 0.42 0.45 0.48 0.54 0.75 1.04 1.15 1.32 1.40 1.43
0.55 0.42 0.41 0.40 0.30 0.19 0.14 0.14 0.10 0.07 0.03 0.01 0.02 0.03 0.11 0.20 0.14 0.08 0.08 0.07 0.07 0.06 0.08 0.11 0.15 0.24 0.31 0.35 0.37 0.38 0.40 0.46 0.49 0.52 0.56 0.63 0.69 0.75 0.79 0.85 0.93 1.03 1.03 0.95
0.21 0.10 0.11 0.09 0.07 0.06 0.05 0.07 0.12 0.15 0.16 0.19 0.26 0.33 0.28 0.18 0.19 0.24 0.25 0.20 0.17 0.15 0.16 0.15 0.17 0.25 0.24 0.23 0.27 0.37 0.45 0.56 0.67 0.80 0.92 0.91 0.86 0.82 0.81 0.80 0.81 0.82 0.73 0.65
0.06 0.01 0.00 0.00 0.01 0.02 0.03 0.04 0.08 0.17 0.27 0.33 0.26 0.17 0.17 0.19 0.18 0.16 0.17 0.17 0.19 0.23 0.22 0.18 0.21 0.33 0.28 0.28 0.39 0.58 0.80 0.96 0.94 0.95 0.94 0.89 0.81 0.73 0.68 0.64 0.61 0.58 0.55 0.54
0.04 0.03 0.03 0.04 0.07 0.11 0.15 0.15 0.16 0.17 0.17 0.13 0.14 0.14 0.15 0.16 0.17 0.21 0.24 0.21 0.17 0.22 0.28 0.38 0.67 0.72 0.78 0.80 0.75 0.77 0.74 0.73 0.67 0.61 0.58 0.55 0.51 0.45 0.40 0.37 0.35 0.31 0.32 0.27
0.05 0.07 0.08 0.12 0.18 0.23 0.23 0.20 0.16 0.14 0.16 0.18 0.18 0.18 0.20 0.22 0.28 0.34 0.42 0.40 0.46 0.62 0.81 0.91 0.85 0.75 0.71 0.67 0.56 0.51 0.46 0.42 0.36 0.34 0.34 0.32 0.28 0.24 0.24 0.24 0.23 0.23 0.21 0.17
0.12 0.17 0.23 0.26 0.27 0.22 0.17 0.16 0.19 0.22 0.29 0.33 0.36 0.49 0.58 0.72 0.81 0.95 1.01 0.89 0.89 0.84 1.04 0.82 0.63 0.46 0.41 0.37 0.29 0.26 0.25 0.24 0.22 0.21 0.20 0.19 0.18 0.18 0.23 0.26 0.28 0.30 0.31 0.28
0.35 0.33 0.28 0.28 0.26 0.26 0.33 0.45 0.46 0.54 0.71 0.65 0.65 0.75 0.86 1.03 1.00 0.93 0.79 0.72 0.71 0.65 0.54 0.42 0.31 0.25 0.21 0.18 0.14 0.13 0.14 0.16 0.15 0.16 0.19 0.25 0.29 0.29 0.28 0.28 0.30 0.31 0.27 0.25
0.59 0.59 0.62 0.64 0.77 0.85 0.89 0.95 0.79 0.86 0.98 0.85 0.69 0.76 0.73 0.76 0.65 0.56 0.41 0.39 0.51 0.37 0.28 0.23 0.18 0.15 0.11 0.10 0.11 0.15 0.18 0.22 0.24 0.27 0.28 0.26 0.25 0.25 0.28 0.27 0.25 0.23 0.23 0.21
0.75 0.73 0.82 0.83 0.69 0.81 0.87 0.78 0.62 0.63 0.62 0.60 0.56 0.54 0.46 0.50 0.43 0.35 0.32 0.28 0.31 0.20 0.16 0.15 0.13 0.10 0.10 0.12 0.14 0.15 0.14 0.18 0.18 0.17 0.20 0.24 0.27 0.26 0.24 0.22 0.21 0.20 0.19 0.20
0.82 0.77 0.69 0.63 0.55 0.58 0.55 0.51 0.51 0.41 0.40 0.38 0.35 0.32 0.25 0.25 0.21 0.14 0.19 0.19 0.13 0.12 0.11 0.13 0.10 0.08 0.08 0.12 0.12 0.14 0.17 0.21 0.22 0.23 0.25 0.21 0.20 0.20 0.19 0.16 0.15 0.16 0.16 0.16
0.66 0.63 0.62 0.61 0.45 0.29 0.33 0.41 0.28 0.23 0.19 0.18 0.17 0.15 0.12 0.09 0.14 0.10 0.09 0.08 0.06 0.06 0.08 0.10 0.07 0.07 0.08 0.16 0.18 0.17 0.17 0.20 0.17 0.16 0.15 0.14 0.16 0.17 0.17 0.16 0.14 0.12 0.14 0.13
0.48 0.44 0.42 0.36 0.26 0.28 0.23 0.20 0.12 0.11 0.09 0.09 0.08 0.07 0.05 0.07 0.15 0.15 0.09 0.09 0.07 0.10 0.16 0.12 0.08 0.08 0.14 0.16 0.17 0.16 0.17 0.18 0.14 0.15 0.17 0.17 0.15 0.16 0.16 0.15 0.15 0.14 0.13 0.12
0.32 0.25 0.23 0.18 0.18 0.16 0.13 0.09 0.12 0.16 0.12 0.11 0.13 0.14 0.13 0.10 0.07 0.08 0.08 0.08 0.09 0.09 0.18 0.20 0.15 0.14 0.15 0.16 0.16 0.15 0.16 0.16 0.16 0.19 0.18 0.16 0.15 0.15 0.13 0.11 0.11 0.11 0.14 0.13
0.21 0.17 0.13 0.13 0.15 0.15 0.14 0.13 0.14 0.15 0.13 0.15 0.16 0.14 0.11 0.09 0.08 0.07 0.09 0.12 0.15 0.16 0.17 0.18 0.17 0.17 0.16 0.15 0.16 0.15 0.16 0.18 0.16 0.15 0.14 0.14 0.13 0.14 0.13 0.12 0.12 0.13 0.13 0.14

GFSNGP_prec_precacc_129.txt.gz
Total_Precipitation_Accumulation
0.52 0.16 0.25 0.52 0.63 0.62 0.92 0.67 0.66 0.69 0.54 0.67 0.92 0.46 0.17 0.14 0.10 0.15 0.17 0.19 0.29 0.39 0.47 0.48 0.49 0.47 0.63 0.62 1.19 1.73 1.58 1.41 1.57 1.41 1.31 1.33 1.24 0.95 0.80 0.94 0.97 0.91 0.75 0.82
1.01 0.36 0.47 0.65 0.80 0.52 0.73 0.61 0.56 0.39 0.37 0.43 0.62 0.63 0.38 0.26 0.17 0.22 0.25 0.24 0.25 0.31 0.36 0.42 0.53 0.68 0.67 0.60 0.84 1.10 1.47 1.79 1.35 1.69 1.65 1.20 1.13 0.99 0.95 0.97 1.04 1.23 1.03 1.07
1.09 0.34 0.37 0.71 0.72 0.61 0.50 0.29 0.22 0.29 0.24 0.37 0.64 0.74 0.67 0.48 0.29 0.29 0.27 0.25 0.20 0.26 0.30 0.37 0.40 0.33 0.39 0.49 0.60 0.62 0.99 1.86 1.87 1.92 2.69 1.89 1.15 1.16 1.09 1.43 1.40 1.29 1.50 1.43
0.79 0.47 0.62 0.71 0.37 0.41 0.49 0.36 0.16 0.21 0.27 0.45 0.55 0.46 0.63 0.61 0.61 0.39 0.33 0.30 0.22 0.20 0.26 0.30 0.26 0.22 0.20 0.20 0.29 0.38 0.36 0.76 1.39 1.44 2.05 2.85 2.20 1.85 1.90 1.57 1.49 1.21 1.19 1.16
0.67 0.47 0.50 0.29 0.31 0.38 0.77 0.70 0.36 0.31 0.46 0.45 0.36 0.18 0.52 0.61 0.60 0.85 0.66 0.50 0.54 0.41 0.33 0.33 0.32 0.37 0.31 0.24 0.22 0.23 0.24 0.37 0.55 0.96 1.26 1.65 2.23 2.49 2.40 2.29 1.94 1.70 1.30 1.18
0.47 0.47 0.45 0.22 0.12 0.26 0.51 1.17 0.97 0.73 0.50 0.43 0.34 0.40 0.68 0.70 0.60 0.69 0.99 0.79 0.59 0.55 0.35 0.47 0.54 0.48 0.70 0.49 0.37 0.39 0.40 0.38 0.36 0.51 0.76 1.07 1.33 1.45 1.49 1.45 1.52 1.50 1.48 1.27
0.43 0.47 0.19 0.04 0.06 0.20 1.01 1.17 1.07 1.29 0.85 0.74 0.67 0.69 0.83 0.83 0.69 0.63 0.84 1.20 0.85 0.74 0.60 0.64 0.83 0.62 0.73 1.19 1.06 0.89 0.82 0.77 0.77 0.77 0.76 0.71 0.74 0.71 0.74 0.85 0.84 0.85 0.94 0.89
0.46 0.56 0.27 0.14 0.28 0.67 1.00 1.03 1.04 1.18 1.26 1.42 1.38 1.26 1.08 0.86 0.66 0.54 0.51 0.73 1.15 0.97 0.91 0.80 0.91 1.00 0.85 1.09 1.69 1.57 1.28 1.20 1.12 0.93 0.84 0.82 0.81 0.86 0.78 0.76 0.75 0.72 0.66 0.62
0.41 0.44 0.43 0.23 0.36 0.65 0.71 0.78 0.79 0.84 0.90 1.02 1.03 0.96 0.80 0.53 0.37 0.35 0.43 0.46 0.55 0.92 0.98 0.84 0.74 0.93 1.03 1.15 1.27 1.42 1.47 1.41 1.42 1.32 1.23 1.14 1.06 1.04 0.93 0.84 0.80 0.82 0.79 0.86
0.59 0.76 0.32 0.22 0.27 0.33 0.42 0.59 0.53 0.51 0.49 0.48 0.51 0.56 0.54 0.40 0.28 0.23 0.22 0.24 0.28 0.37 0.62 0.80 0.83 0.66 0.71 0.81 0.88 1.00 1.02 1.08 1.23 1.28 1.28 1.20 1.11 1.12 1.08 1.07 1.11 1.16 1.12 1.14
0.89 1.52 0.76 0.65 0.74 0.68 0.48 0.48 0.40 0.42 0.39 0.35 0.31 0.33 0.33 0.33 0.29 0.27 0.26 0.28 0.30 0.26 0.23 0.29 0.37 0.50 0.57 0.58 0.55 0.54 0.58 0.65 0.66 0.69 0.76 0.79 0.83 0.89 0.81 0.99 0.95 0.91 1.02 1.10
1.04 1.27 1.09 0.94 0.70 0.53 0.38 0.34 0.26 0.19 0.17 0.16 0.16 0.16 0.13 0.11 0.10 0.11 0.19 0.19 0.11 0.09 0.09 0.12 0.13 0.15 0.16 0.20 0.27 0.34 0.40 0.45 0.55 0.58 0.57 0.59 0.64 0.77 0.87 0.89 0.81 0.82 0.87 0.85
0.88 0.90 0.73 0.61 0.44 0.33 0.24 0.24 0.19 0.12 0.09 0.08 0.04 0.01 0.01 0.04 0.13 0.21 0.11 0.04 0.03 0.04 0.05 0.05 0.05 0.07 0.09 0.11 0.15 0.19 0.24 0.27 0.33 0.40 0.42 0.45 0.48 0.54 0.75 1.04 1.15 1.32 1.40 1.43
0.55 0.42 0.41 0.40 0.30 0.19 0.14 0.14 0.10 0.07 0.03 0.01 0.02 0.03 0.11 0.20 0.14 0.08 0.08 0.07 0.07 0.06 0.08 0.11 0.15 0.24 0.31 0.35 0.37 0.38 0.40 0.46 0.49 0.52 0.56 0.63 0.69 0.75 0.79 0.85 0.93 1.03 1.03 0.95
0.21 0.10 0.11 0.09 0.07 0.06 0.05 0.07 0.12 0.15 0.16 0.19 0.26 0.33 0.28 0.18 0.19 0.24 0.25 0.20 0.17 0.15 0.16 0.15 0.17 0.25 0.24 0.23 0.27 0.37 0.45 0.56 0.67 0.80 0.92 0.91 0.86 0.82 0.81 0.80 0.81 0.82 0.73 0.65
0.06 0.01 0.00 0.00 0.02 0.04 0.05 0.06 0.10 0.18 0.27 0.33 0.27 0.18 0.17 0.19 0.18 0.16 0.17 0.17 0.19 0.23 0.22 0.18 0.21 0.33 0.28 0.28 0.39 0.58 0.80 0.96 0.94 0.95 0.94 0.89 0.81 0.73 0.68 0.64 0.61 0.58 0.55 0.54
0.04 0.03 0.03 0.04 0.07 0.13 0.19 0.19 0.21 0.20 0.19 0.16 0.16 0.15 0.15 0.16 0.17 0.21 0.24 0.21 0.17 0.22 0.28 0.38 0.67 0.72 0.78 0.80 0.75 0.77 0.74 0.73 0.67 0.61 0.58 0.55 0.51 0.45 0.40 0.37 0.35 0.31 0.32 0.27
0.05 0.07 0.08 0.12 0.18 0.27 0.30 0.28 0.23 0.19 0.23 0.23 0.20 0.18 0.20 0.22 0.28 0.34 0.42 0.40 0.46 0.62 0.81 0.91 0.85 0.75 0.71 0.67 0.56 0.51 0.46 0.42 0.36 0.34 0.34 0.32 0.28 0.24 0.24 0.24 0.23 0.23 0.21 0.17
0.12 0.17 0.23 0.26 0.28 0.26 0.24 0.22 0.25 0.29 0.36 0.38 0.37 0.49 0.58 0.72 0.81 0.95 1.01 0.89 0.89 0.84 1.04 0.82 0.63 0.46 0.41 0.37 0.29 0.26 0.25 0.24 0.22 0.21 0.20 0.19 0.18 0.18 0.23 0.26 0.28 0.30 0.31 0.28
0.35 0.33 0.28 0.30 0.31 0.33 0.40 0.50 0.55 0.65 0.79 0.68 0.66 0.75 0.86 1.03 1.00 0.93 0.79 0.72 0.71 0.65 0.54 0.42 0.31 0.25 0.21 0.18 0.14 0.13 0.14 0.16 0.15 0.16 0.19 0.25 0.29 0.29 0.28 0.28 0.30 0.31 0.27 0.25
0.59 0.59 0.62 0.67 0.85 0.94 0.96 1.05 0.90 0.94 1.04 0.87 0.70 0.77 0.73 0.76 0.65 0.56 0.41 0.39 0.51 0.37 0.28 0.23 0.18 0.15 0.11 0.10 0.11 0.15 0.18 0.22 0.24 0.27 0.29 0.26 0.25 0.25 0.28 0.27 0.25 0.24 0.23 0.21
0.75 0.73 0.85 0.88 0.76 0.89 0.96 0.86 0.68 0.68 0.67 0.63 0.58 0.55 0.46 0.50 0.43 0.35 0.32 0.28 0.31 0.20 0.16 0.15 0.13 0.10 0.10 0.12 0.14 0.15 0.14 0.18 0.18 0.17 0.20 0.24 0.27 0.26 0.24 0.22 0.21 0.20 0.19 0.20
0.82 0.78 0.72 0.67 0.60 0.64 0.64 0.60 0.59 0.46 0.44 0.41 0.35 0.33 0.25 0.25 0.21 0.14 0.19 0.19 0.13 0.12 0.11 0.13 0.10 0.08 0.08 0.12 0.12 0.14 0.17 0.21 0.22 0.23 0.25 0.21 0.20 0.21 0.19 0.16 0.16 0.16 0.16 0.16
0.66 0.64 0.63 0.65 0.49 0.35 0.39 0.49 0.35 0.29 0.23 0.20 0.17 0.15 0.12 0.09 0.14 0.10 0.09 0.08 0.06 0.06 0.09 0.10 0.07 0.07 0.08 0.16 0.18 0.17 0.17 0.20 0.17 0.16 0.15 0.14 0.16 0.17 0.17 0.16 0.14 0.12 0.14 0.13
0.48 0.45 0.43 0.38 0.27 0.30 0.26 0.24 0.16 0.14 0.10 0.09 0.08 0.07 0.05 0.07 0.15 0.15 0.09 0.09 0.07 0.10 0.16 0.12 0.08 0.08 0.14 0.16 0.17 0.16 0.17 0.18 0.14 0.15 0.17 0.17 0.15 0.16 0.16 0.15 0.15 0.14 0.13 0.12
0.32 0.25 0.23 0.19 0.18 0.16 0.14 0.10 0.14 0.17 0.13 0.11 0.13 0.14 0.13 0.10 0.07 0.08 0.08 0.08 0.09 0.09 0.18 0.20 0.15 0.14 0.15 0.16 0.16 0.15 0.16 0.16 0.16 0.19 0.18 0.16 0.15 0.15 0.13 0.11 0.11 0.11 0.14 0.13
0.23 0.18 0.14 0.13 0.15 0.15 0.15 0.14 0.14 0.16 0.13 0.15 0.16 0.14 0.11 0.09 0.08 0.07 0.09 0.12 0.15 0.17 0.18 0.18 0.17 0.17 0.16 0.15 0.16 0.15 0.16 0.18 0.16 0.15 0.14 0.14 0.13 0.14 0.13 0.12 0.12 0.13 0.13 0.15

GFSNGP_prec_precacc_132.txt.gz
Total_Precipitation_Accumulation
0.52 0.16 0.25 0.52 0.63 0.62 0.92 0.67 0.66 0.69 0.54 0.67 0.92 0.46 0.17 0.14 0.10 0.15 0.17 0.19 0.29 0.39 0.47 0.49 0.50 0.48 0.63 0.62 1.19 1.73 1.58 1.41 1.60 1.47 1.39 1.40 1.32 1.00 0.82 0.95 0.99 0.92 0.76 0.83
1.01 0.36 0.47 0.65 0.80 0.52 0.73 0.61 0.56 0.39 0.37 0.43 0.62 0.63 0.38 0.26 0.17 0.22 0.25 0.24 0.25 0.31 0.36 0.42 0.53 0.68 0.67 0.60 0.84 1.10 1.47 1.79 1.35 1.69 1.65 1.20 1.13 0.99 0.95 0.97 1.04 1.23 1.03 1.08
1.09 0.34 0.37 0.71 0.72 0.61 0.50 0.29 0.22 0.29 0.24 0.37 0.64 0.74 0.67 0.48 0.29 0.29 0.27 0.25 0.20 0.26 0.30 0.37 0.40 0.33 0.39 0.49 0.60 0.62 0.99 1.86 1.87 1.92 2.69 1.89 1.15 1.16 1.09 1.43 1.40 1.29 1.51 1.43
0.79 0.47 0.62 0.71 0.37 0.41 0.49 0.36 0.16 0.21 0.27 0.45 0.55 0.46 0.63 0.61 0.61 0.39 0.33 0.30 0.22 0.20 0.26 0.30 0.26 0.22 0.20 0.20 0.29 0.38 0.36 0.76 1.39 1.44 2.05 2.85 2.20 1.85 1.90 1.58 1.49 1.22 1.19 1.16
0.67 0.47 0.50 0.29 0.31 0.38 0.77 0.70 0.36 0.31 0.46 0.45 0.36 0.18 0.52 0.61 0.60 0.85 0.66 0.50 0.54 0.41 0.33 0.33 0.32 0.37 0.31 0.24 0.22 0.23 0.24 0.37 0.55 0.96 1.26 1.65 2.23 2.49 2.40 2.29 1.94 1.70 1.31 1.18
0.47 0.47 0.45 0.22 0.12 0.26 0.51 1.17 0.97 0.73 0.50 0.43 0.34 0.40 0.68 0.70 0.60 0.69 0.99 0.79 0.59 0.55 0.35 0.47 0.54 0.48 0.70 0.49 0.37 0.39 0.40 0.38 0.36 0.51 0.76 1.07 1.33 1.45 1.49 1.45 1.52 1.50 1.49 1.28
0.43 0.47 0.19 0.04 0.06 0.20 1.01 1.17 1.07 1.29 0.85 0.74 0.67 0.69 0.83 0.83 0.69 0.63 0.84 1.20 0.85 0.74 0.60 0.64 0.83 0.62 0.73 1.19 1.06 0.89 0.82 0.77 0.77 0.77 0.76 0.71 0.74 0.71 0.74 0.85 0.84 0.85 0.94 0.89
0.47 0.58 0.28 0.14 0.28 0.67 1.00 1.03 1.04 1.18 1.26 1.42 1.38 1.26 1.08 0.86 0.66 0.54 0.51 0.73 1.15 0.97 0.91 0.80 0.91 1.00 0.85 1.09 1.69 1.57 1.28 1.20 1.12 0.93 0.84 0.82 0.81 0.86 0.78 0.76 0.75 0.72 0.66 0.62
0.41 0.44 0.43 0.23 0.36 0.65 0.71 0.78 0.79 0.84 0.90 1.02 1.03 0.96 0.80 0.53 0.37 0.35 0.43 0.46 0.55 0.92 0.98 0.84 0.74 0.93 1.03 1.15 1.27 1.42 1.47 1.41 1.42 1.32 1.23 1.14 1.06 1.04 0.93 0.84 0.80 0.82 0.79 0.86
0.59 0.76 0.32 0.22 0.27 0.33 0.42 0.59 0.53 0.51 0.49 0.48 0.51 0.56 0.54 0.40 0.28 0.23 0.22 0.24 0.28 0.37 0.62 0.80 0.83 0.66 0.71 0.81 0.88 1.00 1.02 1.08 1.23 1.28 1.28 1.20 1.11 1.12 1.08 1.07 1.11 1.16 1.12 1.14
0.90 1.52 0.76 0.65 0.74 0.68 0.48 0.48 0.40 0.42 0.39 0.35 0.31 0.33 0.33 0.33 0.29 0.27 0.26 0.28 0.30 0.26 0.23 0.29 0.37 0.50 0.57 0.58 0.55 0.54 0.58 0.65 0.66 0.69 0.76 0.79 0.83 0.89 0.81 0.99 0.95 0.91 1.02 1.10
1.05 1.27 1.09 0.94 0.70 0.53 0.38 0.34 0.26 0.19 0.17 0.16 0.16 0.16 0.13 0.11 0.10 0.11 0.19 0.19 0.11 0.09 0.09 0.12 0.13 0.15 0.16 0.20 0.27 0.34 0.40 0.45 0.55 0.58 0.57 0.59 0.64 0.77 0.87 0.89 0.81 0.82 0.87 0.85
0.88 0.90 0.73 0.61 0.44 0.33 0.24 0.24 0.19 0.12 0.09 0.08 0.04 0.01 0.01 0.04 0.13 0.21 0.11 0.04 0.03 0.04 0.05 0.05 0.05 0.07 0.09 0.11 0.15 0.19 0.24 0.27 0.33 0.40 0.42 0.45 0.48 0.54 0.75 1.04 1.15 1.32 1.40 1.43
0.55 0.42 0.41 0.40 0.30 0.19 0.14 0.14 0.10 0.07 0.03 0.01 0.02 0.03 0.11 0.20 0.14 0.08 0.08 0.07 0.07 0.06 0.08 0.11 0.15 0.24 0.31 0.35 0.37 0.38 0.40 0.46 0.49 0.52 0.56 0.63 0.69 0.75 0.79 0.85 0.93 1.03 1.03 0.95
0.21 0.10 0.11 0.09 0.07 0.06 0.05 0.07 0.12 0.15 0.16 0.19 0.26 0.34 0.29 0.18 0.19 0.24 0.25 0.20 0.17 0.15 0.16 0.15 0.17 0.25 0.24 0.23 0.27 0.37 0.45 0.56 0.67 0.80 0.92 0.91 0.86 0.82 0.81 0.80 0.81 0.82 0.73 0.65
0.06 0.01 0.00 0.00 0.02 0.04 0.05 0.06 0.10 0.18 0.27 0.34 0.29 0.20 0.19 0.20 0.18 0.16 0.17 0.17 0.19 0.23 0.22 0.18 0.21 0.33 0.28 0.28 0.39 0.58 0.80 0.96 0.94 0.95 0.94 0.89 0.81 0.73 0.68 0.64 0.61 0.58 0.56 0.55
0.04 0.03 0.03 0.04 0.08 0.13 0.19 0.20 0.21 0.21 0.20 0.18 0.21 0.21 0.19 0.16 0.17 0.21 0.24 0.21 0.17 0.22 0.28 0.38 0.67 0.72 0.78 0.80 0.75 0.77 0.74 0.73 0.67 0.61 0.58 0.55 0.51 0.45 0.40 0.37 0.35 0.31 0.32 0.27
0.05 0.07 0.08 0.12 0.18 0.27 0.31 0.29 0.24 0.20 0.26 0.30 0.30 0.27 0.23 0.23 0.28 0.34 0.42 0.40 0.46 0.62 0.81 0.91 0.85 0.75 0.71 0.67 0.56 0.51 0.46 0.42 0.36 0.34 0.34 0.32 0.28 0.24 0.24 0.24 0.23 0.23 0.21 0.17
0.12 0.17 0.23 0.26 0.28 0.26 0.25 0.23 0.27 0.33 0.44 0.48 0.47 0.54 0.60 0.73 0.81 0.95 1.01 0.89 0.89 0.84 1.04 0.82 0.63 0.46 0.41 0.37 0.29 0.26 0.25 0.24 0.22 0.21 0.20 0.19 0.18 0.18 0.23 0.26 0.28 0.30 0.31 0.28
0.35 0.33 0.28 0.30 0.31 0.33 0.41 0.52 0.58 0.70 0.88 0.76 0.71 0.77 0.86 1.03 1.00 0.93 0.79 0.72 0.71 0.65 0.54 0.42 0.31 0.25 0.21 0.18 0.14 0.13 0.14 0.16 0.15 0.16 0.19 0.25 0.29 0.29 0.28 0.28 0.30 0.31 0.27 0.25
0.59 0.59 0.62 0.67 0.85 0.94 0.96 1.06 0.92 0.97 1.09 0.92 0.72 0.77 0.73 0.76 0.65 0.56 0.41 0.39 0.51 0.37 0.28 0.23 0.18 0.15 0.11 0.10 0.11 0.15 0.18 0.22 0.24 0.27 0.29 0.26 0.25 0.25 0.28 0.27 0.25 0.24 0.23 0.21
0.75 0.73 0.85 0.88 0.76 0.90 0.97 0.87 0.69 0.69 0.69 0.65 0.61 0.56 0.46 0.50 0.43 0.35 0.32 0.28 0.31 0.20 0.16 0.15 0.13 0.10 0.10 0.12 0.14 0.15 0.14 0.18 0.18 0.17 0.20 0.24 0.27 0.26 0.24 0.22 0.21 0.20 0.19 0.20
0.83 0.78 0.72 0.67 0.61 0.65 0.65 0.62 0.61 0.48 0.46 0.43 0.38 0.35 0.26 0.26 0.21 0.14 0.19 0.19 0.13 0.12 0.11 0.13 0.10 0.08 0.08 0.12 0.12 0.14 0.17 0.21 0.22 0.23 0.25 0.21 0.20 0.21 0.19 0.16 0.16 0.16 0.16 0.16
0.67 0.64 0.64 0.65 0.50 0.36 0.40 0.51 0.38 0.32 0.26 0.23 0.20 0.16 0.12 0.09 0.14 0.10 0.09 0.08 0.06 0.06 0.09 0.10 0.07 0.07 0.08 0.16 0.18 0.17 0.17 0.20 0.17 0.16 0.15 0.14 0.16 0.17 0.17 0.16 0.14 0.12 0.14 0.13
0.48 0.45 0.43 0.38 0.28 0.31 0.27 0.25 0.18 0.16 0.13 0.12 0.09 0.07 0.05 0.07 0.15 0.15 0.09 0.09 0.07 0.10 0.16 0.12 0.08 0.08 0.14 0.16 0.17 0.16 0.17 0.18 0.14 0.15 0.17 0.17 0.15 0.16 0.16 0.15 0.15 0.14 0.13 0.12
0.32 0.25 0.24 0.19 0.19 0.16 0.15 0.11 0.15 0.18 0.14 0.12 0.13 0.14 0.13 0.10 0.07 0.08 0.08 0.08 0.09 0.09 0.18 0.20 0.15 0.14 0.15 0.16 0.16 0.15 0.16 0.16 0.16 0.19 0.18 0.16 0.15 0.15 0.13 0.11 0.11 0.11 0.14 0.13
0.23 0.19 0.15 0.14 0.16 0.16 0.15 0.15 0.16 0.17 0.15 0.15 0.16 0.14 0.11 0.09 0.08 0.07 0.09 0.12 0.16 0.17 0.18 0.18 0.17 0.17 0.16 0.15 0.16 0.15 0.16 0.18 0.16 0.15 0.14 0.14 0.13 0.14 0.13 0.12 0.12 0.13 0.13 0.15

GFSNGP_prec_precacc_138.txt.gz
Total_Precipitation_Accumulation
0.52 0.16 0.25 0.52 0.63 0.62 0.92 0.67 0.66 0.69 0.54 0.67 0.92 0.46 0.17 0.14 0.10 0.15 0.17 0.19 0.29 0.39 0.47 0.49 0.50 0.48 0.64 0.62 1.19 1.73 1.58 1.41 1.60 1.47 1.39 1.40 1.33 1.02 0.82 0.96 1.01 0.94 0.77 0.88
1.01 0.36 0.47 0.65 0.80 0.52 0.73 0.61 0.56 0.39 0.37 0.43 0.62 0.63 0.38 0.26 0.17 0.22 0.25 0.24 0.25 0.31 0.36 0.42 0.53 0.68 0.67 0.60 0.84 1.10 1.47 1.79 1.35 1.69 1.65 1.20 1.13 0.99 0.95 0.98 1.04 1.23 1.03 1.08
1.11 0.34 0.37 0.71 0.72 0.61 0.50 0.29 0.22 0.29 0.24 0.37 0.64 0.74 0.67 0.48 0.29 0.29 0.27 0.25 0.20 0.26 0.30 0.37 0.40 0.33 0.39 0.49 0.60 0.62 0.99 1.86 1.87 1.92 2.69 1.89 1.15 1.16 1.09 1.44 1.40 1.29 1.51 1.43
0.81 0.47 0.62 0.71 0.37 0.41 0.49 0.36 0.16 0.21 0.27 0.45 0.55 0.46 0.63 0.61 0.61 0.39 0.33 0.30 0.22 0.20 0.26 0.30 0.26 0.22 0.20 0.20 0.29 0.38 0.36 0.76 1.39 1.44 2.05 2.85 2.20 1.85 1.90 1.58 1.49 1.22 1.20 1.16
0.67 0.47 0.50 0.29 0.31 0.38 0.77 0.70 0.36 0.31 0.46 0.45 0.36 0.18 0.52 0.61 0.60 0.85 0.66 0.50 0.54 0.41 0.33 0.33 0.32 0.37 0.31 0.24 0.22 0.23 0.24 0.37 0.55 0.96 1.26 1.65 2.23 2.49 2.40 2.29 1.94 1.70 1.31 1.19
0.47 0.48 0.45 0.22 0.12 0.26 0.51 1.17 0.97 0.73 0.50 0.43 0.34 0.40 0.68 0.70 0.60 0.69 0.99 0.79 0.59 0.55 0.35 0.47 0.54 0.48 0.70 0.49 0.37 0.39 0.40 0.38 0.36 0.51 0.76 1.07 1.33 1.45 1.49 1.45 1.52 1.50 1.49 1.28
0.46 0.52 0.20 0.04 0.06 0.20 1.01 1.17 1.07 1.29 0.85 0.74 0.67 0.69 0.83 0.83 0.69 0.63 0.84 1.20 0.85 0.74 0.60 0.64 0.83 0.62 0.73 1.19 1.06 0.89 0.82 0.77 0.77 0.77 0.76 0.71 0.74 0.71 0.74 0.85 0.84 0.85 0.94 0.89
0.47 0.61 0.28 0.14 0.28 0.67 1.00 1.03 1.04 1.18 1.26 1.42 1.38 1.26 1.08 0.86 0.66 0.54 0.51 0.73 1.15 0.97 0.91 0.80 0.91 1.00 0.85 1.09 1.69 1.57 1.28 1.20 1.12 0.93 0.84 0.82 0.81 0.86 0.78 0.76 0.75 0.72 0.66 0.62
0.41 0.44 0.43 0.23 0.36 0.65 0.71 0.78 0.79 0.84 0.90 1.02 1.03 0.96 0.80 0.53 0.37 0.35 0.43 0.46 0.55 0.92 0.98 0.84 0.74 0.93 1.03 1.15 1.27 1.42 1.47 1.41 1.42 1.32 1.23 1.14 1.06 1.04 0.93 0.84 0.80 0.82 0.79 0.86
0.59 0.76 0.32 0.22 0.27 0.33 0.42 0.59 0.53 0.51 0.49 0.48 0.51 0.56 0.54 0.40 0.28 0.23 0.22 0.24 0.28 0.37 0.62 0.80 0.83 0.66 0.71 0.81 0.88 1.00 1.02 1.08 1.23 1.28 1.28 1.20 1.11 1.12 1.08 1.07 1.11 1.16 1.12 1.14
0.90 1.52 0.76 0.65 0.74 0.68 0.48 0.48 0.40 0.42 0.39 0.35 0.31 0.33 0.33 0.33 0.29 0.27 0.26 0.28 0.30 0.26 0.23 0.29 0.37 0.50 0.57 0.58 0.55 0.54 0.58 0.65 0.66 0.69 0.76 0.79 0.83 0.89 0.81 0.99 0.95 0.91 1.02 1.10
1.05 1.27 1.09 0.94 0.70 0.53 0.38 0.34 0.26 0.19 0.17 0.16 0.16 0.16 0.13 0.11 0.10 0.11 0.19 0.19 0.11 0.09 0.09 0.12 0.13 0.15 0.16 0.20 0.27 0.34 0.40 0.45 0.55 0.58 0.57 0.59 0.64 0.77 0.87 0.89 0.81 0.82 0.87 0.85
0.88 0.90 0.73 0.61 0.44 0.33 0.24 0.24 0.19 0.12 0.09 0.08 0.04 0.01 0.01 0.04 0.13 0.21 0.11 0.04 0.03 0.04 0.05 0.05 0.05 0.07 0.09 0.11 0.15 0.19 0.24 0.27 0.33 0.40 0.42 0.45 0.48 0.54 0.75 1.04 1.15 1.32 1.40 1.43
0.55 0.42 0.41 0.40 0.30 0.19 0.14 0.14 0.10 0.07 0.03 0.01 0.02 0.03 0.11 0.20 0.14 0.08 0.08 0.07 0.07 0.06 0.08 0.11 0.15 0.24 0.31 0.35 0.37 0.38 0.40 0.46 0.49 0.52 0.56 0.63 0.69 0.75 0.79 0.85 0.93 1.04 1.03 0.95
0.21 0.10 0.11 0.09 0.07 0.06 0.05 0.07 0.12 0.15 0.16 0.19 0.26 0.34 0.29 0.18 0.19 0.24 0.25 0.20 0.17 0.15 0.16 0.15 0.17 0.25 0.24 0.23 0.27 0.37 0.45 0.56 0.67 0.80 0.92 0.91 0.86 0.82 0.81 0.80 0.81 0.82 0.73 0.65
0.06 0.01 0.00 0.00 0.02 0.04 0.05 0.06 0.10 0.18 0.27 0.34 0.29 0.20 0.19 0.21 0.20 0.18 0.17 0.17 0.19 0.23 0.22 0.18 0.21 0.33 0.28 0.28 0.39 0.58 0.80 0.96 0.94 0.95 0.94 0.89 0.81 0.73 0.68 0.64 0.61 0.58 0.56 0.55
0.04 0.03 0.03 0.04 0.08 0.13 0.19 0.20 0.21 0.21 0.20 0.19 0.23 0.24 0.23 0.24 0.24 0.24 0.24 0.21 0.17 0.22 0.28 0.38 0.67 0.72 0.78 0.80 0.75 0.77 0.74 0.73 0.67 0.61 0.58 0.55 0.51 0.45 0.40 0.37 0.35 0.31 0.32 0.27
0.05 0.07 0.08 0.12 0.18 0.27 0.31 0.29 0.24 0.20 0.26 0.31 0.31 0.32 0.32 0.32 0.33 0.37 0.43 0.41 0.46 0.62 0.81 0.91 0.85 0.75 0.71 0.67 0.56 0.51 0.46 0.42 0.36 0.34 0.34 0.32 0.28 0.24 0.24 0.24 0.23 0.23 0.21 0.17
0.12 0.17 0.23 0.26 0.28 0.26 0.25 0.24 0.27 0.33 0.44 0.49 0.49 0.59 0.66 0.79 0.88 1.01 1.03 0.90 0.89 0.85 1.04 0.82 0.63 0.46 0.41 0.37 0.29 0.26 0.25 0.24 0.22 0.21 0.20 0.19 0.18 0.18 0.23 0.26 0.28 0.30 0.31 0.28
0.35 0.33 0.28 0.30 0.31 0.33 0.41 0.52 0.58 0.71 0.89 0.78 0.75 0.83 0.92 1.09 1.04 0.96 0.80 0.73 0.72 0.65 0.55 0.42 0.31 0.25 0.21 0.18 0.14 0.13 0.14 0.16 0.15 0.16 0.19 0.25 0.29 0.29 0.28 0.28 0.30 0.31 0.27 0.25
0.59 0.59 0.62 0.67 0.85 0.94 0.96 1.06 0.93 0.97 1.11 0.94 0.75 0.82 0.78 0.79 0.67 0.57 0.41 0.40 0.51 0.37 0.28 0.23 0.18 0.15 0.11 0.10 0.11 0.15 0.18 0.22 0.24 0.27 0.29 0.26 0.25 0.25 0.28 0.27 0.25 0.24 0.23 0.21
0.75 0.73 0.85 0.88 0.76 0.90 0.97 0.88 0.70 0.70 0.70 0.68 0.65 0.61 0.50 0.53 0.45 0.36 0.33 0.28 0.31 0.20 0.16 0.15 0.13 0.10 0.10 0.12 0.14 0.15 0.14 0.18 0.18 0.17 0.20 0.24 0.27 0.26 0.24 0.22 0.21 0.20 0.19 0.20
0.83 0.78 0.72 0.67 0.61 0.66 0.66 0.63 0.62 0.49 0.47 0.44 0.40 0.38 0.30 0.28 0.22 0.14 0.19 0.19 0.13 0.12 0.11 0.13 0.10 0.08 0.08 0.12 0.12 0.14 0.17 0.21 0.22 0.23 0.25 0.21 0.20 0.21 0.19 0.16 0.16 0.16 0.16 0.16
0.67 0.65 0.64 0.66 0.50 0.37 0.41 0.52 0.39 0.34 0.27 0.26 0.23 0.20 0.15 0.12 0.15 0.10 0.09 0.08 0.06 0.06 0.09 0.10 0.07 0.07 0.08 0.16 0.18 0.17 0.17 0.20 0.17 0.16 0.15 0.14 0.16 0.17 0.17 0.16 0.14 0.12 0.14 0.13
0.48 0.45 0.43 0.38 0.28 0.31 0.28 0.26 0.19 0.18 0.15 0.14 0.13 0.12 0.09 0.08 0.16 0.15 0.09 0.09 0.07 0.10 0.16 0.12 0.08 0.08 0.14 0.16 0.17 0.16 0.17 0.18 0.14 0.15 0.17 0.17 0.15 0.16 0.16 0.15 0.15 0.14 0.13 0.12
0.33 0.25 0.24 0.19 0.19 0.16 0.15 0.11 0.15 0.19 0.15 0.14 0.16 0.16 0.15 0.11 0.08 0.08 0.08 0.08 0.09 0.09 0.18 0.21 0.15 0.14 0.15 0.16 0.16 0.15 0.16 0.16 0.16 0.19 0.18 0.16 0.15 0.15 0.13 0.11 0.11 0.11 0.14 0.13
0.23 0.19 0.15 0.14 0.16 0.16 0.15 0.15 0.16 0.18 0.16 0.16 0.18 0.15 0.12 0.09 0.08 0.07 0.09 0.12 0.16 0.17 0.18 0.18 0.17 0.17 0.16 0.15 0.16 0.15 0.16 0.18 0.16 0.15 0.14 0.14 0.13 0.14 0.13 0.12 0.12 0.13 0.13 0.15